owner,sensor,date,latitude,longitude,vertical_datum,mass_concentration_of_oxygen_in_sea_water,qcFlag 
TCOON,ioos:station:TCOON:127:1,2017-08-01T00:30:00Z,28.2598,-96.7737,1.0,7.31,1111122 
TCOON,ioos:station:TCOON:127:1,2017-08-01T01:30:00Z,28.2598,-96.7737,1.0,6.4,1111122 
TCOON,ioos:station:TCOON:127:1,2017-08-01T02:30:00Z,28.2598,-96.7737,1.0,6.18,1111122 
TCOON,ioos:station:TCOON:127:1,2017-08-01T03:30:00Z,28.2598,-96.7737,1.0,6.16,1111122 
TCOON,ioos:station:TCOON:127:1,2017-08-01T04:30:00Z,28.2598,-96.7737,1.0,5.45,1111122 
TCOON,ioos:station:TCOON:127:1,2017-08-01T05:30:00Z,28.2598,-96.7737,1.0,3.89,1111122 
TCOON,ioos:station:TCOON:127:1,2017-08-01T06:30:00Z,28.2598,-96.7737,1.0,4.9,1111122 
TCOON,ioos:station:TCOON:127:1,2017-08-01T07:30:00Z,28.2598,-96.7737,1.0,4.37,1111122 
TCOON,ioos:station:TCOON:127:1,2017-08-01T08:30:00Z,28.2598,-96.7737,1.0,5.22,1111122 
TCOON,ioos:station:TCOON:127:1,2017-08-01T09:30:00Z,28.2598,-96.7737,1.0,5.44,1111122 
TCOON,ioos:station:TCOON:127:1,2017-08-01T10:30:00Z,28.2598,-96.7737,1.0,4.4,1111122 
TCOON,ioos:station:TCOON:127:1,2017-08-01T11:30:00Z,28.2598,-96.7737,1.0,5.38,1111122 
TCOON,ioos:station:TCOON:127:1,2017-08-01T12:30:00Z,28.2598,-96.7737,1.0,4.98,1111122 
TCOON,ioos:station:TCOON:127:1,2017-08-01T13:30:00Z,28.2598,-96.7737,1.0,5.11,1111122 
TCOON,ioos:station:TCOON:127:1,2017-08-01T14:30:00Z,28.2598,-96.7737,1.0,4.8,1111122 
TCOON,ioos:station:TCOON:127:1,2017-08-01T15:30:00Z,28.2598,-96.7737,1.0,4.84,1111122 
TCOON,ioos:station:TCOON:127:1,2017-08-01T16:30:00Z,28.2598,-96.7737,1.0,5.07,1111122 
TCOON,ioos:station:TCOON:127:1,2017-08-01T17:30:00Z,28.2598,-96.7737,1.0,5.85,1111122 
TCOON,ioos:station:TCOON:127:1,2017-08-01T19:30:00Z,28.2598,-96.7737,1.0,6.36,1111122 
TCOON,ioos:station:TCOON:127:1,2017-08-01T20:30:00Z,28.2598,-96.7737,1.0,6.0,1111122 
TCOON,ioos:station:TCOON:127:1,2017-08-01T22:00:00Z,28.2598,-96.7737,1.0,6.85,1111122 
TCOON,ioos:station:TCOON:127:1,2017-08-01T22:30:00Z,28.2598,-96.7737,1.0,6.5,1111122 
TCOON,ioos:station:TCOON:127:1,2017-08-02T01:30:00Z,28.2598,-96.7737,1.0,6.59,1111122 
TCOON,ioos:station:TCOON:127:1,2017-08-02T02:30:00Z,28.2598,-96.7737,1.0,6.16,1111122 
TCOON,ioos:station:TCOON:127:1,2017-08-02T03:30:00Z,28.2598,-96.7737,1.0,5.16,1111122 
TCOON,ioos:station:TCOON:127:1,2017-08-02T04:30:00Z,28.2598,-96.7737,1.0,6.08,1111122 
TCOON,ioos:station:TCOON:127:1,2017-08-02T05:30:00Z,28.2598,-96.7737,1.0,6.28,1111122 
TCOON,ioos:station:TCOON:127:1,2017-08-02T06:30:00Z,28.2598,-96.7737,1.0,5.83,1111122 
TCOON,ioos:station:TCOON:127:1,2017-08-02T07:30:00Z,28.2598,-96.7737,1.0,5.48,1111122 
TCOON,ioos:station:TCOON:127:1,2017-08-02T08:30:00Z,28.2598,-96.7737,1.0,4.96,1111122 
TCOON,ioos:station:TCOON:127:1,2017-08-02T09:30:00Z,28.2598,-96.7737,1.0,5.17,1111122 
TCOON,ioos:station:TCOON:127:1,2017-08-02T10:30:00Z,28.2598,-96.7737,1.0,4.38,1111122 
TCOON,ioos:station:TCOON:127:1,2017-08-02T11:30:00Z,28.2598,-96.7737,1.0,4.33,1111122 
TCOON,ioos:station:TCOON:127:1,2017-08-02T12:30:00Z,28.2598,-96.7737,1.0,3.66,1111122 
TCOON,ioos:station:TCOON:127:1,2017-08-02T13:30:00Z,28.2598,-96.7737,1.0,2.77,1111122 
TCOON,ioos:station:TCOON:127:1,2017-08-02T14:30:00Z,28.2598,-96.7737,1.0,2.2,1111122 
TCOON,ioos:station:TCOON:127:1,2017-08-02T15:30:00Z,28.2598,-96.7737,1.0,3.23,1111122 
TCOON,ioos:station:TCOON:127:1,2017-08-03T01:30:00Z,28.2598,-96.7737,1.0,7.6,1111122 
TCOON,ioos:station:TCOON:127:1,2017-08-03T13:30:00Z,28.2598,-96.7737,1.0,6.58,1111122 
TCOON,ioos:station:TCOON:127:1,2017-08-03T14:30:00Z,28.2598,-96.7737,1.0,6.41,1111122 
TCOON,ioos:station:TCOON:127:1,2017-08-03T15:30:00Z,28.2598,-96.7737,1.0,6.13,1111122 
TCOON,ioos:station:TCOON:127:1,2017-08-03T16:30:00Z,28.2598,-96.7737,1.0,6.28,1111122 
TCOON,ioos:station:TCOON:127:1,2017-08-03T19:00:00Z,28.2598,-96.7737,1.0,6.51,1111122 
TCOON,ioos:station:TCOON:127:1,2017-08-03T21:30:00Z,28.2598,-96.7737,1.0,6.42,1111122 
TCOON,ioos:station:TCOON:127:1,2017-08-04T01:00:00Z,28.2598,-96.7737,1.0,7.54,1111122 
TCOON,ioos:station:TCOON:127:1,2017-08-04T04:00:00Z,28.2598,-96.7737,1.0,7.58,1111122 
TCOON,ioos:station:TCOON:127:1,2017-08-04T09:30:00Z,28.2598,-96.7737,1.0,7.01,1111122 
TCOON,ioos:station:TCOON:127:1,2017-08-04T11:30:00Z,28.2598,-96.7737,1.0,6.73,1111122 
TCOON,ioos:station:TCOON:127:1,2017-08-04T20:00:00Z,28.2598,-96.7737,1.0,8.34,1111122 
TCOON,ioos:station:TCOON:127:1,2017-08-04T20:30:00Z,28.2598,-96.7737,1.0,8.45,1111122 
TCOON,ioos:station:TCOON:127:1,2017-08-04T21:30:00Z,28.2598,-96.7737,1.0,8.27,1111122 
TCOON,ioos:station:TCOON:127:1,2017-08-04T22:30:00Z,28.2598,-96.7737,1.0,8.03,1111122 
TCOON,ioos:station:TCOON:127:1,2017-08-05T05:30:00Z,28.2598,-96.7737,1.0,6.88,1111122 
TCOON,ioos:station:TCOON:127:1,2017-08-05T06:30:00Z,28.2598,-96.7737,1.0,6.8,1111122 
TCOON,ioos:station:TCOON:127:1,2017-08-05T07:30:00Z,28.2598,-96.7737,1.0,6.71,1111122 
TCOON,ioos:station:TCOON:127:1,2017-08-05T08:30:00Z,28.2598,-96.7737,1.0,6.63,1111122 
TCOON,ioos:station:TCOON:127:1,2017-08-05T09:30:00Z,28.2598,-96.7737,1.0,6.47,1111122 
TCOON,ioos:station:TCOON:127:1,2017-08-05T10:30:00Z,28.2598,-96.7737,1.0,6.41,1111122 
TCOON,ioos:station:TCOON:127:1,2017-08-05T11:30:00Z,28.2598,-96.7737,1.0,6.18,1111122 
TCOON,ioos:station:TCOON:127:1,2017-08-05T12:30:00Z,28.2598,-96.7737,1.0,5.74,1111122 
TCOON,ioos:station:TCOON:127:1,2017-08-05T14:00:00Z,28.2598,-96.7737,1.0,6.12,1111122 
TCOON,ioos:station:TCOON:127:1,2017-08-05T14:30:00Z,28.2598,-96.7737,1.0,6.16,1111122 
TCOON,ioos:station:TCOON:127:1,2017-08-05T15:30:00Z,28.2598,-96.7737,1.0,6.35,1111122 
TCOON,ioos:station:TCOON:127:1,2017-08-05T17:00:00Z,28.2598,-96.7737,1.0,6.59,1111122 
TCOON,ioos:station:TCOON:127:1,2017-08-05T18:00:00Z,28.2598,-96.7737,1.0,6.64,1111122 
TCOON,ioos:station:TCOON:127:1,2017-08-05T18:30:00Z,28.2598,-96.7737,1.0,6.6,1111122 
TCOON,ioos:station:TCOON:127:1,2017-08-05T20:00:00Z,28.2598,-96.7737,1.0,7.63,1111122 
TCOON,ioos:station:TCOON:127:1,2017-08-05T22:00:00Z,28.2598,-96.7737,1.0,7.27,1111122 
TCOON,ioos:station:TCOON:127:1,2017-08-05T22:30:00Z,28.2598,-96.7737,1.0,7.14,1111122 
TCOON,ioos:station:TCOON:127:1,2017-08-06T03:30:00Z,28.2598,-96.7737,1.0,6.43,1111122 
TCOON,ioos:station:TCOON:127:1,2017-08-06T04:30:00Z,28.2598,-96.7737,1.0,6.3,1111122 
TCOON,ioos:station:TCOON:127:1,2017-08-06T05:30:00Z,28.2598,-96.7737,1.0,6.18,1111122 
TCOON,ioos:station:TCOON:127:1,2017-08-06T06:30:00Z,28.2598,-96.7737,1.0,6.2,1111122 
TCOON,ioos:station:TCOON:127:1,2017-08-06T07:30:00Z,28.2598,-96.7737,1.0,6.08,1111122 
TCOON,ioos:station:TCOON:127:1,2017-08-06T08:30:00Z,28.2598,-96.7737,1.0,6.16,1111122 
TCOON,ioos:station:TCOON:127:1,2017-08-06T09:30:00Z,28.2598,-96.7737,1.0,6.11,1111122 
TCOON,ioos:station:TCOON:127:1,2017-08-06T10:30:00Z,28.2598,-96.7737,1.0,6.15,1111122 
TCOON,ioos:station:TCOON:127:1,2017-08-06T11:30:00Z,28.2598,-96.7737,1.0,6.02,1111122 
TCOON,ioos:station:TCOON:127:1,2017-08-06T12:30:00Z,28.2598,-96.7737,1.0,6.06,1111122 
TCOON,ioos:station:TCOON:127:1,2017-08-06T13:30:00Z,28.2598,-96.7737,1.0,6.2,1111122 
TCOON,ioos:station:TCOON:127:1,2017-08-06T14:30:00Z,28.2598,-96.7737,1.0,6.3,1111122 
TCOON,ioos:station:TCOON:127:1,2017-08-06T15:30:00Z,28.2598,-96.7737,1.0,6.54,1111122 
TCOON,ioos:station:TCOON:127:1,2017-08-06T16:30:00Z,28.2598,-96.7737,1.0,6.73,1111122 
TCOON,ioos:station:TCOON:127:1,2017-08-06T17:30:00Z,28.2598,-96.7737,1.0,6.9,1111122 
TCOON,ioos:station:TCOON:127:1,2017-08-06T18:30:00Z,28.2598,-96.7737,1.0,7.09,1111122 
TCOON,ioos:station:TCOON:127:1,2017-08-06T19:30:00Z,28.2598,-96.7737,1.0,7.08,1111122 
TCOON,ioos:station:TCOON:127:1,2017-08-06T20:30:00Z,28.2598,-96.7737,1.0,7.22,1111122 
TCOON,ioos:station:TCOON:127:1,2017-08-06T21:30:00Z,28.2598,-96.7737,1.0,6.89,1111122 
TCOON,ioos:station:TCOON:127:1,2017-08-06T22:30:00Z,28.2598,-96.7737,1.0,6.72,1111122 
TCOON,ioos:station:TCOON:127:1,2017-08-06T23:30:00Z,28.2598,-96.7737,1.0,6.65,1111122 
TCOON,ioos:station:TCOON:127:1,2017-08-07T00:30:00Z,28.2598,-96.7737,1.0,6.45,1111122 
TCOON,ioos:station:TCOON:127:1,2017-08-07T01:30:00Z,28.2598,-96.7737,1.0,6.38,1111122 
TCOON,ioos:station:TCOON:127:1,2017-08-07T02:30:00Z,28.2598,-96.7737,1.0,6.36,1111122 
TCOON,ioos:station:TCOON:127:1,2017-08-07T03:30:00Z,28.2598,-96.7737,1.0,6.26,1111122 
TCOON,ioos:station:TCOON:127:1,2017-08-07T04:30:00Z,28.2598,-96.7737,1.0,6.2,1111122 
TCOON,ioos:station:TCOON:127:1,2017-08-07T05:30:00Z,28.2598,-96.7737,1.0,6.03,1111122 
TCOON,ioos:station:TCOON:127:1,2017-08-07T06:30:00Z,28.2598,-96.7737,1.0,6.14,1111122 
TCOON,ioos:station:TCOON:127:1,2017-08-07T07:30:00Z,28.2598,-96.7737,1.0,5.93,1111122 
TCOON,ioos:station:TCOON:127:1,2017-08-07T08:30:00Z,28.2598,-96.7737,1.0,5.71,1111122 
TCOON,ioos:station:TCOON:127:1,2017-08-07T09:30:00Z,28.2598,-96.7737,1.0,5.62,1111122 
TCOON,ioos:station:TCOON:127:1,2017-08-07T10:30:00Z,28.2598,-96.7737,1.0,5.76,1111122 
TCOON,ioos:station:TCOON:127:1,2017-08-07T11:30:00Z,28.2598,-96.7737,1.0,5.57,1111122 
TCOON,ioos:station:TCOON:127:1,2017-08-07T12:30:00Z,28.2598,-96.7737,1.0,5.59,1111122 
TCOON,ioos:station:TCOON:127:1,2017-08-07T13:30:00Z,28.2598,-96.7737,1.0,5.24,1111122 
TCOON,ioos:station:TCOON:127:1,2017-08-07T14:30:00Z,28.2598,-96.7737,1.0,5.48,1111122 
TCOON,ioos:station:TCOON:127:1,2017-08-07T15:30:00Z,28.2598,-96.7737,1.0,5.07,1111122 
TCOON,ioos:station:TCOON:127:1,2017-08-07T16:30:00Z,28.2598,-96.7737,1.0,5.11,1111122 
TCOON,ioos:station:TCOON:127:1,2017-08-07T17:30:00Z,28.2598,-96.7737,1.0,5.06,1111122 
TCOON,ioos:station:TCOON:127:1,2017-08-07T18:30:00Z,28.2598,-96.7737,1.0,5.41,1111122 
TCOON,ioos:station:TCOON:127:1,2017-08-07T19:30:00Z,28.2598,-96.7737,1.0,5.17,1111122 
TCOON,ioos:station:TCOON:127:1,2017-08-07T20:30:00Z,28.2598,-96.7737,1.0,6.18,1111122 
TCOON,ioos:station:TCOON:127:1,2017-08-07T21:30:00Z,28.2598,-96.7737,1.0,6.93,1111122 
TCOON,ioos:station:TCOON:127:1,2017-08-07T22:30:00Z,28.2598,-96.7737,1.0,7.25,1111122 
TCOON,ioos:station:TCOON:127:1,2017-08-07T23:30:00Z,28.2598,-96.7737,1.0,7.17,1111122 
TCOON,ioos:station:TCOON:127:1,2017-08-08T00:30:00Z,28.2598,-96.7737,1.0,7.27,1111122 
TCOON,ioos:station:TCOON:127:1,2017-08-08T01:30:00Z,28.2598,-96.7737,1.0,6.66,1111122 
TCOON,ioos:station:TCOON:127:1,2017-08-08T02:30:00Z,28.2598,-96.7737,1.0,6.26,1111122 
TCOON,ioos:station:TCOON:127:1,2017-08-08T03:30:00Z,28.2598,-96.7737,1.0,6.33,1111122 
TCOON,ioos:station:TCOON:127:1,2017-08-08T04:30:00Z,28.2598,-96.7737,1.0,6.25,1111122 
TCOON,ioos:station:TCOON:127:1,2017-08-08T05:30:00Z,28.2598,-96.7737,1.0,6.0,1111122 
TCOON,ioos:station:TCOON:127:1,2017-08-08T06:30:00Z,28.2598,-96.7737,1.0,6.0,1111122 
TCOON,ioos:station:TCOON:127:1,2017-08-08T07:30:00Z,28.2598,-96.7737,1.0,5.38,1111122 
TCOON,ioos:station:TCOON:127:1,2017-08-08T08:30:00Z,28.2598,-96.7737,1.0,5.25,1111122 
TCOON,ioos:station:TCOON:127:1,2017-08-08T09:30:00Z,28.2598,-96.7737,1.0,4.72,1111122 
TCOON,ioos:station:TCOON:127:1,2017-08-08T10:30:00Z,28.2598,-96.7737,1.0,4.82,1111122 
TCOON,ioos:station:TCOON:127:1,2017-08-08T11:30:00Z,28.2598,-96.7737,1.0,3.08,1111122 
TCOON,ioos:station:TCOON:127:1,2017-08-08T12:30:00Z,28.2598,-96.7737,1.0,5.04,1111122 
TCOON,ioos:station:TCOON:127:1,2017-08-08T13:30:00Z,28.2598,-96.7737,1.0,4.12,1111122 
TCOON,ioos:station:TCOON:127:1,2017-08-08T14:30:00Z,28.2598,-96.7737,1.0,4.14,1111122 
TCOON,ioos:station:TCOON:127:1,2017-08-08T15:30:00Z,28.2598,-96.7737,1.0,4.72,1111122 
TCOON,ioos:station:TCOON:127:1,2017-08-08T16:30:00Z,28.2598,-96.7737,1.0,5.42,1111122 
TCOON,ioos:station:TCOON:127:1,2017-08-08T17:30:00Z,28.2598,-96.7737,1.0,5.76,1111122 
TCOON,ioos:station:TCOON:127:1,2017-08-08T18:30:00Z,28.2598,-96.7737,1.0,5.75,1111122 
TCOON,ioos:station:TCOON:127:1,2017-08-08T19:30:00Z,28.2598,-96.7737,1.0,6.05,1111122 
TCOON,ioos:station:TCOON:127:1,2017-08-08T20:30:00Z,28.2598,-96.7737,1.0,6.66,1111122 
TCOON,ioos:station:TCOON:127:1,2017-08-08T21:30:00Z,28.2598,-96.7737,1.0,6.85,1111122 
TCOON,ioos:station:TCOON:127:1,2017-08-08T22:30:00Z,28.2598,-96.7737,1.0,6.84,1111122 
TCOON,ioos:station:TCOON:127:1,2017-08-08T23:30:00Z,28.2598,-96.7737,1.0,6.22,1111122 
TCOON,ioos:station:TCOON:127:1,2017-08-09T00:30:00Z,28.2598,-96.7737,1.0,6.26,1111122 
TCOON,ioos:station:TCOON:127:1,2017-08-09T01:30:00Z,28.2598,-96.7737,1.0,6.06,1111122 
TCOON,ioos:station:TCOON:127:1,2017-08-09T02:30:00Z,28.2598,-96.7737,1.0,6.14,1111122 
TCOON,ioos:station:TCOON:127:1,2017-08-09T03:30:00Z,28.2598,-96.7737,1.0,5.8,1111122 
TCOON,ioos:station:TCOON:127:1,2017-08-09T04:30:00Z,28.2598,-96.7737,1.0,5.35,1111122 
TCOON,ioos:station:TCOON:127:1,2017-08-09T05:30:00Z,28.2598,-96.7737,1.0,5.19,1111122 
TCOON,ioos:station:TCOON:127:1,2017-08-09T06:30:00Z,28.2598,-96.7737,1.0,4.95,1111122 
TCOON,ioos:station:TCOON:127:1,2017-08-09T07:30:00Z,28.2598,-96.7737,1.0,5.34,1111122 
TCOON,ioos:station:TCOON:127:1,2017-08-09T08:30:00Z,28.2598,-96.7737,1.0,4.61,1111122 
TCOON,ioos:station:TCOON:127:1,2017-08-09T09:30:00Z,28.2598,-96.7737,1.0,4.2,1111122 
TCOON,ioos:station:TCOON:127:1,2017-08-09T10:30:00Z,28.2598,-96.7737,1.0,4.88,1111122 
TCOON,ioos:station:TCOON:127:1,2017-08-09T11:30:00Z,28.2598,-96.7737,1.0,5.08,1111122 
TCOON,ioos:station:TCOON:127:1,2017-08-09T12:30:00Z,28.2598,-96.7737,1.0,4.84,1111122 
TCOON,ioos:station:TCOON:127:1,2017-08-09T13:30:00Z,28.2598,-96.7737,1.0,4.78,1111122 
TCOON,ioos:station:TCOON:127:1,2017-08-09T14:30:00Z,28.2598,-96.7737,1.0,5.0,1111122 
TCOON,ioos:station:TCOON:127:1,2017-08-09T15:30:00Z,28.2598,-96.7737,1.0,4.44,1111122 
TCOON,ioos:station:TCOON:127:1,2017-08-09T16:30:00Z,28.2598,-96.7737,1.0,4.96,1111122 
TCOON,ioos:station:TCOON:127:1,2017-08-09T23:00:00Z,28.2598,-96.7737,1.0,7.3,1111122 
TCOON,ioos:station:TCOON:127:1,2017-08-09T23:30:00Z,28.2598,-96.7737,1.0,7.08,1111122 
TCOON,ioos:station:TCOON:127:1,2017-08-10T00:30:00Z,28.2598,-96.7737,1.0,6.74,1111122 
TCOON,ioos:station:TCOON:127:1,2017-08-10T01:30:00Z,28.2598,-96.7737,1.0,6.35,1111122 
TCOON,ioos:station:TCOON:127:1,2017-08-10T02:30:00Z,28.2598,-96.7737,1.0,6.34,1111122 
TCOON,ioos:station:TCOON:127:1,2017-08-10T03:30:00Z,28.2598,-96.7737,1.0,6.23,1111122 
TCOON,ioos:station:TCOON:127:1,2017-08-10T04:30:00Z,28.2598,-96.7737,1.0,5.23,1111122 
TCOON,ioos:station:TCOON:127:1,2017-08-10T05:30:00Z,28.2598,-96.7737,1.0,5.66,1111122 
TCOON,ioos:station:TCOON:127:1,2017-08-10T06:30:00Z,28.2598,-96.7737,1.0,5.19,1111122 
TCOON,ioos:station:TCOON:127:1,2017-08-10T07:30:00Z,28.2598,-96.7737,1.0,5.2,1111122 
TCOON,ioos:station:TCOON:127:1,2017-08-10T08:30:00Z,28.2598,-96.7737,1.0,5.33,1111122 
TCOON,ioos:station:TCOON:127:1,2017-08-10T09:30:00Z,28.2598,-96.7737,1.0,4.91,1111122 
TCOON,ioos:station:TCOON:127:1,2017-08-10T10:30:00Z,28.2598,-96.7737,1.0,5.15,1111122 
TCOON,ioos:station:TCOON:127:1,2017-08-10T11:30:00Z,28.2598,-96.7737,1.0,5.25,1111122 
TCOON,ioos:station:TCOON:127:1,2017-08-10T12:30:00Z,28.2598,-96.7737,1.0,4.35,1111122 
TCOON,ioos:station:TCOON:127:1,2017-08-10T13:30:00Z,28.2598,-96.7737,1.0,3.76,1111122 
TCOON,ioos:station:TCOON:127:1,2017-08-10T14:30:00Z,28.2598,-96.7737,1.0,5.61,1111122 
TCOON,ioos:station:TCOON:127:1,2017-08-10T15:30:00Z,28.2598,-96.7737,1.0,4.59,1111122 
TCOON,ioos:station:TCOON:127:1,2017-08-10T16:30:00Z,28.2598,-96.7737,1.0,5.39,1111122 
TCOON,ioos:station:TCOON:127:1,2017-08-10T17:30:00Z,28.2598,-96.7737,1.0,5.52,1111122 
TCOON,ioos:station:TCOON:127:1,2017-08-10T18:30:00Z,28.2598,-96.7737,1.0,5.83,1111122 
TCOON,ioos:station:TCOON:127:1,2017-08-10T19:30:00Z,28.2598,-96.7737,1.0,6.0,1111122 
TCOON,ioos:station:TCOON:127:1,2017-08-10T20:30:00Z,28.2598,-96.7737,1.0,6.02,1111122 
TCOON,ioos:station:TCOON:127:1,2017-08-10T21:30:00Z,28.2598,-96.7737,1.0,5.7,1111122 
TCOON,ioos:station:TCOON:127:1,2017-08-10T22:30:00Z,28.2598,-96.7737,1.0,6.4,1111122 
TCOON,ioos:station:TCOON:127:1,2017-08-10T23:30:00Z,28.2598,-96.7737,1.0,6.09,1111122 
TCOON,ioos:station:TCOON:127:1,2017-08-11T00:30:00Z,28.2598,-96.7737,1.0,5.64,1111122 
TCOON,ioos:station:TCOON:127:1,2017-08-11T01:30:00Z,28.2598,-96.7737,1.0,5.48,1111122 
TCOON,ioos:station:TCOON:127:1,2017-08-11T02:30:00Z,28.2598,-96.7737,1.0,5.47,1111122 
TCOON,ioos:station:TCOON:127:1,2017-08-11T03:30:00Z,28.2598,-96.7737,1.0,4.94,1111122 
TCOON,ioos:station:TCOON:127:1,2017-08-11T04:30:00Z,28.2598,-96.7737,1.0,4.91,1111122 
TCOON,ioos:station:TCOON:127:1,2017-08-11T05:30:00Z,28.2598,-96.7737,1.0,4.75,1111122 
TCOON,ioos:station:TCOON:127:1,2017-08-11T06:30:00Z,28.2598,-96.7737,1.0,4.4,1111122 
TCOON,ioos:station:TCOON:127:1,2017-08-11T07:30:00Z,28.2598,-96.7737,1.0,3.88,1111122 
TCOON,ioos:station:TCOON:127:1,2017-08-11T08:30:00Z,28.2598,-96.7737,1.0,3.93,1111122 
TCOON,ioos:station:TCOON:127:1,2017-08-11T09:30:00Z,28.2598,-96.7737,1.0,3.72,1111122 
TCOON,ioos:station:TCOON:127:1,2017-08-11T10:30:00Z,28.2598,-96.7737,1.0,3.38,1111122 
TCOON,ioos:station:TCOON:127:1,2017-08-11T11:30:00Z,28.2598,-96.7737,1.0,1.8,1111122 
TCOON,ioos:station:TCOON:127:1,2017-08-11T12:30:00Z,28.2598,-96.7737,1.0,2.13,1111122 
TCOON,ioos:station:TCOON:127:1,2017-08-11T13:30:00Z,28.2598,-96.7737,1.0,2.89,1111122 
TCOON,ioos:station:TCOON:127:1,2017-08-11T14:30:00Z,28.2598,-96.7737,1.0,3.04,1111122 
TCOON,ioos:station:TCOON:127:1,2017-08-11T15:30:00Z,28.2598,-96.7737,1.0,3.66,1111122 
TCOON,ioos:station:TCOON:127:1,2017-08-11T16:30:00Z,28.2598,-96.7737,1.0,1.73,1111122 
TCOON,ioos:station:TCOON:127:1,2017-08-11T17:30:00Z,28.2598,-96.7737,1.0,2.81,1111122 
TCOON,ioos:station:TCOON:127:1,2017-08-11T18:30:00Z,28.2598,-96.7737,1.0,3.19,1111122 
TCOON,ioos:station:TCOON:127:1,2017-08-11T19:30:00Z,28.2598,-96.7737,1.0,3.56,1111122 
TCOON,ioos:station:TCOON:127:1,2017-08-11T20:30:00Z,28.2598,-96.7737,1.0,3.46,1111122 
TCOON,ioos:station:TCOON:127:1,2017-08-11T21:30:00Z,28.2598,-96.7737,1.0,3.63,1111122 
TCOON,ioos:station:TCOON:127:1,2017-08-11T22:30:00Z,28.2598,-96.7737,1.0,3.39,1111122 
TCOON,ioos:station:TCOON:127:1,2017-08-11T23:30:00Z,28.2598,-96.7737,1.0,2.94,1111122 
TCOON,ioos:station:TCOON:127:1,2017-08-12T00:30:00Z,28.2598,-96.7737,1.0,3.2,1111122 
TCOON,ioos:station:TCOON:127:1,2017-08-12T01:30:00Z,28.2598,-96.7737,1.0,3.19,1111122 
TCOON,ioos:station:TCOON:127:1,2017-08-12T02:30:00Z,28.2598,-96.7737,1.0,2.65,1111122 
TCOON,ioos:station:TCOON:127:1,2017-08-12T03:30:00Z,28.2598,-96.7737,1.0,1.95,1111122 
TCOON,ioos:station:TCOON:127:1,2017-08-12T04:30:00Z,28.2598,-96.7737,1.0,1.7,1111122 
TCOON,ioos:station:TCOON:127:1,2017-08-12T05:30:00Z,28.2598,-96.7737,1.0,1.28,1111122 
TCOON,ioos:station:TCOON:127:1,2017-08-12T06:30:00Z,28.2598,-96.7737,1.0,1.26,1111122 
TCOON,ioos:station:TCOON:127:1,2017-08-12T07:30:00Z,28.2598,-96.7737,1.0,1.14,1111122 
TCOON,ioos:station:TCOON:127:1,2017-08-12T08:30:00Z,28.2598,-96.7737,1.0,0.92,1111122 
TCOON,ioos:station:TCOON:127:1,2017-08-12T09:30:00Z,28.2598,-96.7737,1.0,0.93,1111122 
TCOON,ioos:station:TCOON:127:1,2017-08-12T10:30:00Z,28.2598,-96.7737,1.0,0.86,1111122 
TCOON,ioos:station:TCOON:127:1,2017-08-12T11:30:00Z,28.2598,-96.7737,1.0,0.59,1111122 
TCOON,ioos:station:TCOON:127:1,2017-08-12T12:30:00Z,28.2598,-96.7737,1.0,0.59,1111122 
TCOON,ioos:station:TCOON:127:1,2017-08-12T13:30:00Z,28.2598,-96.7737,1.0,0.5,1111122 
TCOON,ioos:station:TCOON:127:1,2017-08-12T14:30:00Z,28.2598,-96.7737,1.0,0.69,1111122 
TCOON,ioos:station:TCOON:127:1,2017-08-12T15:30:00Z,28.2598,-96.7737,1.0,0.82,1111122 
TCOON,ioos:station:TCOON:127:1,2017-08-12T16:30:00Z,28.2598,-96.7737,1.0,0.57,1111122 
TCOON,ioos:station:TCOON:127:1,2017-08-12T17:30:00Z,28.2598,-96.7737,1.0,0.66,1111122 
TCOON,ioos:station:TCOON:127:1,2017-08-12T18:30:00Z,28.2598,-96.7737,1.0,1.09,1111122 
TCOON,ioos:station:TCOON:127:1,2017-08-12T19:30:00Z,28.2598,-96.7737,1.0,0.85,1111122 
TCOON,ioos:station:TCOON:127:1,2017-08-12T20:30:00Z,28.2598,-96.7737,1.0,0.77,1111122 
TCOON,ioos:station:TCOON:127:1,2017-08-12T21:30:00Z,28.2598,-96.7737,1.0,0.6,1111122 
TCOON,ioos:station:TCOON:127:1,2017-08-12T22:30:00Z,28.2598,-96.7737,1.0,0.51,1111122 
TCOON,ioos:station:TCOON:127:1,2017-08-12T23:30:00Z,28.2598,-96.7737,1.0,0.43,1111122 
TCOON,ioos:station:TCOON:127:1,2017-08-13T00:30:00Z,28.2598,-96.7737,1.0,0.38,1111122 
TCOON,ioos:station:TCOON:127:1,2017-08-13T01:30:00Z,28.2598,-96.7737,1.0,0.3,1111122 
TCOON,ioos:station:TCOON:127:1,2017-08-13T02:30:00Z,28.2598,-96.7737,1.0,0.32,1111122 
TCOON,ioos:station:TCOON:127:1,2017-08-13T03:30:00Z,28.2598,-96.7737,1.0,0.26,1111122 
TCOON,ioos:station:TCOON:127:1,2017-08-13T04:30:00Z,28.2598,-96.7737,1.0,0.22,1111122 
TCOON,ioos:station:TCOON:127:1,2017-08-13T05:30:00Z,28.2598,-96.7737,1.0,0.2,1111122 
TCOON,ioos:station:TCOON:127:1,2017-08-13T06:30:00Z,28.2598,-96.7737,1.0,0.18,1111122 
TCOON,ioos:station:TCOON:127:1,2017-08-13T07:30:00Z,28.2598,-96.7737,1.0,0.18,1111122 
TCOON,ioos:station:TCOON:127:1,2017-08-13T08:30:00Z,28.2598,-96.7737,1.0,0.17,1111122 
TCOON,ioos:station:TCOON:127:1,2017-08-13T09:30:00Z,28.2598,-96.7737,1.0,0.17,1111122 
TCOON,ioos:station:TCOON:127:1,2017-08-13T10:30:00Z,28.2598,-96.7737,1.0,0.18,1111122 
TCOON,ioos:station:TCOON:127:1,2017-08-13T11:30:00Z,28.2598,-96.7737,1.0,0.2,1111122 
TCOON,ioos:station:TCOON:127:1,2017-08-13T12:30:00Z,28.2598,-96.7737,1.0,0.18,1111122 
TCOON,ioos:station:TCOON:127:1,2017-08-13T13:30:00Z,28.2598,-96.7737,1.0,0.18,1111122 
TCOON,ioos:station:TCOON:127:1,2017-08-13T14:30:00Z,28.2598,-96.7737,1.0,0.18,1111122 
TCOON,ioos:station:TCOON:127:1,2017-08-13T15:30:00Z,28.2598,-96.7737,1.0,0.19,1111122 
TCOON,ioos:station:TCOON:127:1,2017-08-13T16:30:00Z,28.2598,-96.7737,1.0,0.19,1111122 
TCOON,ioos:station:TCOON:127:1,2017-08-13T17:30:00Z,28.2598,-96.7737,1.0,0.19,1111122 
TCOON,ioos:station:TCOON:127:1,2017-08-13T18:30:00Z,28.2598,-96.7737,1.0,0.2,1111122 
TCOON,ioos:station:TCOON:127:1,2017-08-13T19:30:00Z,28.2598,-96.7737,1.0,0.33,1111122 
TCOON,ioos:station:TCOON:127:1,2017-08-13T20:30:00Z,28.2598,-96.7737,1.0,0.36,1111122 
TCOON,ioos:station:TCOON:127:1,2017-08-13T21:30:00Z,28.2598,-96.7737,1.0,0.39,1111122 
TCOON,ioos:station:TCOON:127:1,2017-08-13T22:30:00Z,28.2598,-96.7737,1.0,0.47,1111122 
TCOON,ioos:station:TCOON:127:1,2017-08-13T23:30:00Z,28.2598,-96.7737,1.0,0.49,1111122 
TCOON,ioos:station:TCOON:127:1,2017-08-14T00:30:00Z,28.2598,-96.7737,1.0,0.29,1111122 
TCOON,ioos:station:TCOON:127:1,2017-08-14T01:30:00Z,28.2598,-96.7737,1.0,0.35,1111122 
TCOON,ioos:station:TCOON:127:1,2017-08-14T02:30:00Z,28.2598,-96.7737,1.0,0.33,1111122 
TCOON,ioos:station:TCOON:127:1,2017-08-14T03:30:00Z,28.2598,-96.7737,1.0,0.28,1111122 
TCOON,ioos:station:TCOON:127:1,2017-08-14T04:30:00Z,28.2598,-96.7737,1.0,0.32,1111122 
TCOON,ioos:station:TCOON:127:1,2017-08-14T05:30:00Z,28.2598,-96.7737,1.0,0.32,1111122 
TCOON,ioos:station:TCOON:127:1,2017-08-14T06:30:00Z,28.2598,-96.7737,1.0,0.28,1111122 
TCOON,ioos:station:TCOON:127:1,2017-08-14T07:30:00Z,28.2598,-96.7737,1.0,0.29,1111122 
TCOON,ioos:station:TCOON:127:1,2017-08-14T08:30:00Z,28.2598,-96.7737,1.0,0.27,1111122 
TCOON,ioos:station:TCOON:127:1,2017-08-14T09:30:00Z,28.2598,-96.7737,1.0,0.29,1111122 
TCOON,ioos:station:TCOON:127:1,2017-08-14T10:30:00Z,28.2598,-96.7737,1.0,0.26,1111122 
TCOON,ioos:station:TCOON:127:1,2017-08-14T11:30:00Z,28.2598,-96.7737,1.0,0.27,1111122 
TCOON,ioos:station:TCOON:127:1,2017-08-14T12:30:00Z,28.2598,-96.7737,1.0,0.24,1111122 
TCOON,ioos:station:TCOON:127:1,2017-08-14T13:30:00Z,28.2598,-96.7737,1.0,0.23,1111122 
TCOON,ioos:station:TCOON:127:1,2017-08-14T14:30:00Z,28.2598,-96.7737,1.0,0.24,1111122 
TCOON,ioos:station:TCOON:127:1,2017-08-14T15:30:00Z,28.2598,-96.7737,1.0,0.26,1111122 
TCOON,ioos:station:TCOON:127:1,2017-08-14T16:30:00Z,28.2598,-96.7737,1.0,0.22,1111122 
TCOON,ioos:station:TCOON:127:1,2017-08-14T17:30:00Z,28.2598,-96.7737,1.0,0.2,1111122 
TCOON,ioos:station:TCOON:127:1,2017-08-14T18:30:00Z,28.2598,-96.7737,1.0,0.21,1111122 
TCOON,ioos:station:TCOON:127:1,2017-08-14T19:30:00Z,28.2598,-96.7737,1.0,0.2,1111122 
TCOON,ioos:station:TCOON:127:1,2017-08-14T20:30:00Z,28.2598,-96.7737,1.0,0.26,1111122 
TCOON,ioos:station:TCOON:127:1,2017-08-14T21:30:00Z,28.2598,-96.7737,1.0,0.23,1111122 